星链-36320(STARLINK-36320)

导读

STARLINK-36320(NORAD编号68090)是SpaceX星链(Starlink)低轨互联网星座中的一颗卫星,属于全球规模最大的低轨通信卫星星座成员。星链计划旨在部署超4万颗低轨卫星,提供覆盖全球的高速卫星互联网服务,填补偏远地区网络覆盖空白。该卫星运行于近地轨道,在2026年SpaceX降低4400颗星链卫星轨道高度的安全优化计划中,它的轨道高度预计从原550公里调整至480公里,降低故障碰撞风险,减少太空碎片威胁,依托星链成熟的星座架构,为全球用户提供稳定的天基通信支持,服务个人、商业及特殊场景联网需求。

Basic Information
目录编号:
68090
目录名称:
STARLINK-36320
国际标识:
2026-042X
轨道中心:
EARTH
卫星名称:
星链-36320
卫星全名:
星链-36320(STARLINK-36320)
卫星状态:
在轨 (已飞行184 天)
发射日期:
2026-03-04 UTC
国别 :
美国 (US)
星等 :
--
Orbit Information
数据来源 国际轨道数据
星历时间: 2026-09-02T14:19:49+0800
1天前
查看轨道信息
半长轴: 6840.83km
偏心率: 0.0001232
轨道倾角: 53.160°
近地点辐角 75.011°
升交点赤经 74.705°
平近点角 285.103°
近地点: 461.85km
远地点: 463.536km
周期: 93.848分钟
每日圈数: 15.344036
Detailed Information
固有亮度:
5
最大亮度:
2.5
卫星平台:
Starlink V1.0
覆盖范围:
全球
运营商:
太空探索技术公司
运营商所在国:
美国
制造商(研发单位):
太空探索技术公司
制造商所在国:
美国
使用方式:
暂无
Satellite Introduction
Starlink 计划是 SpaceX 推出的全球卫星互联网项目,通过发射低轨道卫星,为全球尤其是偏远地区提供高速、低延迟的互联网服务。自 2019 年起,Starlink 已部署数千颗卫星,旨在缩小全球数字鸿沟,推动互联网普及。该项目还为军事、航空等行业提供通信支持,带来广泛经济效益。
2D Orbit Map
3D Orbit Map
Orbit Altitude Analysis Chart
Orbit Inclination Analysis Chart
Orbit Comprehensive Analysis Chart
View Comprehensive Chart
Conjunction Data List
Event ID Objects TCA Miss Dist (km) Collision Risk Probability Collision Risk Index (CRI) Action
CDM_260904-124106-386806-809021
2026-09-04T
12:41:47+0000
2.540 km
极远距离
1.251286E-6 低风险 0.37
CDM_260903-200805-231106-809021
2026-09-03T
20:08:36+0000
2.690 km
极远距离
9.93486E-7 极低风险 0.35
CDM_260905-072706-638906-809021
2026-09-05T
07:27:51+0000
2.615 km
极远距离
7.959169E-7 极低风险 0.33
CDM_260905-054906-170006-809021
2026-09-05T
05:49:13+0000
2.460 km
极远距离
6.182326E-7 极低风险 0.31
CDM_260905-032705-258606-809021
2026-09-05T
03:27:37+0000
2.992 km
极远距离
5.965704E-7 极低风险 0.31
CDM_260829-172905-256106-809021
2026-08-29T
17:29:23+0000
2.805 km
极远距离
5.605836E-7 极低风险 0.3